Location: Crescent
(42.8242°N, 73.7329°W)
Time: 07:36:33
(UTC+00:00)

Vanguard 1 - Pass Details

Date: 17 February 2026
Orbit: 653 x 3818 km, 34.2° (Epoch: 12 March)

Event Time Altitude Azimuth Distance (km) Brightness Sun altitude
Rises 04:28:13 0° 280° (W) 7,614 14.8 -57.9°
Reaches altitude 10° 04:35:49 10° 265° (W) 6,843 14.3 -58.3°
Enters shadow 04:44:54 18° 242° (WSW) 6,240 13.9 -58.7°
Maximum altitude 04:48:50 19° 231° (SW) 6,117 - -58.9°
Drops below altitude 10° 05:01:12 10° 195° (SSW) 6,370 - -59.1°
Sets 05:08:04 0° 179° (S) 6,918 - -59.2°
